TimeCDT,TemperatureF,Dew PointF,Humidity,Sea Level PressureIn,VisibilityMPH,Wind Direction,Wind SpeedMPH,Gust SpeedMPH,PrecipitationIn,Events,Conditions,WindDirDegrees,DateUTC
12:15 AM,73.4,70.5,91,30.03,7.0,Calm,Calm,-,N/A,,Clear,0,2013-09-17 05:15:00
12:35 AM,73.2,70.3,91,30.03,7.0,Calm,Calm,-,N/A,,Clear,0,2013-09-17 05:35:00
12:55 AM,72.9,70.0,91,30.03,10.0,Calm,Calm,-,N/A,,Clear,0,2013-09-17 05:55:00
1:15 AM,74.1,71.4,91,30.03,7.0,Calm,Calm,-,N/A,,Clear,0,2013-09-17 06:15:00
1:35 AM,74.8,71.8,90,30.02,7.0,NE,3.5,-,N/A,,Clear,40,2013-09-17 06:35:00
1:55 AM,75.7,72.7,90,30.02,7.0,NNE,4.6,-,N/A,,Clear,30,2013-09-17 06:55:00
2:15 AM,76.3,72.9,89,30.01,10.0,ENE,3.5,-,N/A,,Clear,60,2013-09-17 07:15:00
2:35 AM,75.6,72.0,89,30.02,10.0,Calm,Calm,-,N/A,,Clear,0,2013-09-17 07:35:00
2:55 AM,75.6,72.1,89,30.02,10.0,Calm,Calm,-,N/A,,Clear,0,2013-09-17 07:55:00
3:15 AM,74.7,71.1,88,30.01,7.0,Calm,Calm,-,N/A,,Clear,0,2013-09-17 08:15:00
3:35 AM,74.1,70.7,89,30.01,7.0,Calm,Calm,-,N/A,,Clear,0,2013-09-17 08:35:00
3:55 AM,73.4,70.5,91,30.01,10.0,Calm,Calm,-,N/A,,Clear,0,2013-09-17 08:55:00
4:15 AM,75.2,72.5,91,30.01,10.0,Calm,Calm,-,N/A,,Clear,0,2013-09-17 09:15:00
4:35 AM,75.2,72.3,91,30.01,10.0,NE,3.5,-,N/A,,Clear,40,2013-09-17 09:35:00
4:55 AM,75.9,72.9,90,30.00,10.0,NNE,3.5,-,N/A,,Clear,20,2013-09-17 09:55:00
5:15 AM,76.1,73.2,91,30.00,7.0,North,3.5,-,N/A,,Clear,10,2013-09-17 10:15:00
5:35 AM,75.7,72.7,90,30.00,7.0,North,3.5,-,N/A,,Clear,360,2013-09-17 10:35:00
5:49 AM,75.2,71.6,89,30.02,7.0,NE,9.2,-,N/A,,Clear,50,2013-09-17 10:49:00
5:55 AM,76.1,73.0,90,30.01,10.0,ENE,4.6,-,N/A,,Clear,70,2013-09-17 10:55:00
6:55 AM,75.2,71.6,89,30.04,7.0,NE,8.1,-,N/A,,Clear,40,2013-09-17 11:55:00
7:53 AM,77.0,73.4,89,30.05,7.0,NE,8.1,-,N/A,,Clear,40,2013-09-17 12:53:00
8:50 AM,82.4,75.2,79,30.07,7.0,ENE,5.8,-,N/A,,Partly Cloudy,60,2013-09-17 13:50:00
9:50 AM,86.0,71.6,62,30.07,7.0,NE,11.5,-,N/A,,Scattered Clouds,50,2013-09-17 14:50:00
10:49 AM,89.6,71.6,55,30.08,7.0,ENE,9.2,-,N/A,,Scattered Clouds,70,2013-09-17 15:49:00
11:49 AM,91.4,71.6,52,30.07,7.0,NE,8.1,-,N/A,,Scattered Clouds,50,2013-09-17 16:49:00
12:50 PM,91.4,71.6,52,30.05,7.0,East,8.1,-,N/A,,Scattered Clouds,80,2013-09-17 17:50:00
1:50 PM,91.4,71.6,52,30.01,7.0,ENE,9.2,-,N/A,,Scattered Clouds,70,2013-09-17 18:50:00
2:50 PM,91.4,71.6,52,29.98,7.0,East,6.9,-,N/A,,Scattered Clouds,90,2013-09-17 19:50:00
3:50 PM,84.2,73.4,70,29.99,7.0,East,5.8,-,N/A,,Scattered Clouds,90,2013-09-17 20:50:00
4:50 PM,82.4,71.6,70,29.98,7.0,NE,5.8,-,N/A,,Scattered Clouds,40,2013-09-17 21:50:00
5:50 PM,80.6,73.4,79,29.97,7.0,NE,4.6,-,N/A,,Scattered Clouds,40,2013-09-17 22:50:00
7:15 PM,80.1,74.3,82,29.97,7.0,Calm,Calm,-,N/A,,Clear,0,2013-09-18 00:15:00
7:35 PM,78.3,73.6,85,29.97,7.0,SSE,3.5,-,N/A,,Clear,160,2013-09-18 00:35:00
7:55 PM,77.4,73.6,88,29.98,7.0,Calm,Calm,-,N/A,,Clear,0,2013-09-18 00:55:00
8:15 PM,77.0,73.4,89,29.99,10.0,Calm,Calm,-,N/A,,Clear,0,2013-09-18 01:15:00
8:35 PM,76.5,73.0,89,29.99,7.0,Calm,Calm,-,N/A,,Clear,0,2013-09-18 01:35:00
8:55 PM,76.6,73.4,90,29.99,7.0,NE,3.5,-,N/A,,Clear,50,2013-09-18 01:55:00
9:15 PM,77.9,73.6,86,30.00,10.0,ENE,4.6,-,N/A,,Clear,60,2013-09-18 02:15:00
9:35 PM,78.4,73.8,85,30.00,7.0,East,4.6,-,N/A,,Clear,80,2013-09-18 02:35:00
9:55 PM,78.4,73.6,85,30.00,7.0,ENE,4.6,-,N/A,,Clear,70,2013-09-18 02:55:00
10:15 PM,78.3,73.4,85,30.01,10.0,East,4.6,-,N/A,,Clear,100,2013-09-18 03:15:00
10:35 PM,77.9,72.9,84,30.01,10.0,East,3.5,-,N/A,,Clear,100,2013-09-18 03:35:00
10:55 PM,77.0,72.5,86,30.01,7.0,Calm,Calm,-,N/A,,Clear,0,2013-09-18 03:55:00
11:15 PM,75.7,71.8,87,30.01,7.0,Calm,Calm,-,N/A,,Clear,0,2013-09-18 04:15:00
11:35 PM,75.4,71.8,89,30.00,10.0,Calm,Calm,-,N/A,,Clear,0,2013-09-18 04:35:00
11:55 PM,74.8,71.6,90,30.00,7.0,Calm,Calm,-,N/A,,Clear,0,2013-09-18 04:55:00